• Join FlightAware (Why Join?)
  • Login
  • US Flag 
11:02PM EDT


 

Airport Tracker/Info


-or-


 

Live Flight TrackerFlight Track Log ✈ SWA861 ✈ 27-Apr-2013 ✈ KBWI - KBOS

Flight Track Log - Related Links

Times and Time Zones

All times are in EDT time to prevent confusion due to time zone crossing. See the SWA861 flight status page for this flight to view local times or setup timezone preferences in your user account.

Time Position Orientation Groundspeed Altitude Reporting Facility
EDT Latitude Longitude Course Direction KTS MPH feet Rate Location/Type
08:57PM 39.1069 -76.6133 143° Southeast 183 211 3,400  Level Washington Center
08:58PM 39.0492 -76.5564 143° Southeast 225 259 5,900 3,240 Climbing Washington Center
08:59PM 39.0581 -76.4683 83° East 214 246 9,900 2,760 Climbing Washington Center
09:00PM 39.0986 -76.3592 64° Northeast 227 261 11,500 2,400 Climbing Washington Center
09:01PM 39.1431 -76.2339 65° Northeast 323 372 14,800 3,180 Climbing Washington Center
09:02PM 39.1667 -76.0950 78° East 361 415 17,900 2,640 Climbing Washington Center
09:03PM 39.1858 -75.9425 81° East 401 461 20,100 2,220 Climbing Washington Center
09:04PM 39.2444 -75.8114 60° Northeast 413 475 22,500 2,280 Climbing Washington Center
09:05PM 39.3322 -75.7017 44° Northeast 411 473 24,700 1,980 Climbing Washington Center
09:06PM 39.4219 -75.5836 45° Northeast 432 497 26,500 2,040 Climbing Washington Center
09:07PM 39.5114 -75.4706 44° Northeast 446 513 28,800 1,860 Climbing Washington Center
09:09PM 39.7289 -75.1786 46° Northeast 462 532 32,900 1,680 Climbing New York Center
09:10PM 39.8236 -75.0389 49° Northeast 462 532 34,600 1,860 Climbing New York Center
09:11PM 39.8983 -74.9325 48° Northeast 456 525 36,800 1,200 Climbing New York Center
09:12PM 39.9906 -74.8025 47° Northeast 450 518 37,000 60 Climbing New York Center
09:13PM 40.0650 -74.6928 48° Northeast 445 512 37,000 -120 Level New York Center
09:14PM 40.1550 -74.5567 49° Northeast 452 520 36,800 -600 Descending New York Center
09:15PM 40.2383 -74.4253 50° Northeast 453 521 35,900 -900 Descending New York Center
09:16PM 40.3194 -74.2961 51° Northeast 458 527 35,000 -960 Descending New York Center
09:17PM 40.4003 -74.1694 50° Northeast 458 527 34,000 -1,020 Descending New York Center
09:18PM 40.4808 -74.0425 50° Northeast 458 527 33,000 -960 Descending New York Center
09:19PM 40.5636 -73.9128 50° Northeast 458 527 32,100 -960 Descending New York Center
09:22PM 40.7564 -73.6017 51° Northeast 457 526 29,800 -1,320 Descending Boston Center
09:23PM 40.8325 -73.4797 50° Northeast 452 520 27,700 -1,620 Descending Boston Center
09:24PM 40.9086 -73.3628 49° Northeast 432 497 26,600 -1,020 Descending Boston Center
09:25PM 40.9781 -73.2650 47° Northeast 419 482 25,700 -900 Descending Boston Center
09:26PM 41.0539 -73.1503 49° Northeast 407 468 24,800 -960 Descending Boston Center
09:27PM 41.1317 -73.0381 47° Northeast 412 474 23,800 -900 Descending Boston Center
09:28PM 41.2094 -72.9231 48° Northeast 412 474 23,000 -420 Descending Boston Center
09:29PM 41.2725 -72.7686 61° Northeast 418 481 23,000  Level Boston Center
09:30PM 41.3250 -72.6281 64° Northeast 423 487 23,000  Level Boston Center
09:31PM 41.3750 -72.4925 64° Northeast 418 481 23,000  Level Boston Center
09:32PM 41.4272 -72.3514 64° Northeast 413 475 23,000  Level Boston Center
09:33PM 41.4728 -72.2294 63° Northeast 413 475 23,000  Level Boston Center
09:34PM 41.5244 -72.0881 64° Northeast 413 475 23,000  Level Boston Center
09:35PM 41.5739 -71.9461 65° Northeast 413 475 23,000  Level Boston Center
09:36PM 41.6169 -71.7958 69° East 418 481 23,000 -600 Level Boston Center
09:37PM 41.6578 -71.6539 69° East 423 487 21,800 -2,220 Descending Boston Center
09:38PM 41.7044 -71.4975 68° East 410 472 18,600 -2,940 Descending Boston Center
09:39PM 41.7492 -71.3689 65° Northeast 391 450 16,000 -2,520 Descending Boston Center
09:40PM 41.8022 -71.2481 59° Northeast 383 441 13,600 -2,460 Descending Boston Center
09:41PM 41.8531 -71.1244 61° Northeast 370 426 11,100 -1,440 Descending Boston Center
09:41PM 41.9000 -71.0333 55° Northeast 355 409 11,000 -60 Descending KA90
09:43PM 41.9667 -70.9167 52° Northeast 347 399 11,000  Level KA90
09:44PM 42.0136 -70.8111 59° Northeast 337 388 11,000  Level Boston Center
09:45PM 42.0600 -70.7119 58° Northeast 326 375 11,000 -240 Level Boston Center
09:46PM 42.1236 -70.6542 34° Northeast 280 322 10,600 -900 Descending Boston Center
09:47PM 42.1986 -70.6492 North 262 302 9,300 -1,440 Descending Boston Center
09:48PM 42.2714 -70.6358 North 262 302 7,800 -1,500 Descending Boston Center
09:49PM 42.3422 -70.6367 360° North 256 295 6,300 -1,500 Descending Boston Center
09:50PM 42.3994 -70.6969 322° Northwest 240 276 4,800 -1,620 Descending Boston Center
09:51PM 42.4567 -70.7544 323° Northwest 247 284 3,100 -1,020 Descending Boston Center
09:52PM 42.5000 -70.8833 295° West 237 273 2,000 -540 Descending KA90
09:53PM 42.4667 -70.9333 228° Southwest 175 201 1,700 -300 Descending KA90
09:54PM 42.4333 -70.9667 216° Southwest 133 153 1,400 -480 Descending KA90
09:55PM 42.4000 -70.9833 200° South 124 143 800 -600 Descending KA90
09:57PM 42.3630 -71.0064 North  Level Estimated